Regional Weather Roundup
Issued by NWS

Home | Current Version | Previous Version | Text Only | Print | Product List | Glossary On
Versions: 1 2 3 4 5 6 7 8 9 10 11 12 13 14 15 16 17 18 19 20 21 22 23 24 25 26 27 28
000
ASUS46 KPQR 300610
RWROR

OREGON REGIONAL WEATHER ROUNDUP
NATIONAL WEATHER SERVICE PORTLAND OR
1100 PM PDT WED MAR 29 2017

NOTE: "FAIR" INDICATES FEW OR NO CLOUDS BELOW 12,000 FEET WITH
NO SIGNIFICANT WEATHER AND/OR OBSTRUCTIONS TO VISIBILITY.

ORZ001>013-300700-
NORTHWEST OREGON


CITY           SKY/WX    TMP DP  RH WIND       PRES   REMARKS
ASTORIA        CLOUDY    46  40  79 W6        30.08R
6HR MIN TEMP:  45; 6HR MAX TEMP:  50; 6HR PCP: TRACE;

NEWPORT        CLOUDY    46  43  87 NW9       30.14S
PORTLAND       MOCLDY    47  41  80 N3        30.08R
6HR MIN TEMP:  47; 6HR MAX TEMP:  58; 6HR PCP: TRACE;

VANCOUVER WA   CLOUDY    48  43  82 VRB7      30.07R
6HR MIN TEMP:  48; 6HR MAX TEMP:  59; 6HR PCP:  0.01;

SCAPPOOSE      CLOUDY    46  41  82 CALM      30.07R
6HR MIN TEMP:  44; 6HR MAX TEMP:  59; 6HR PCP:  0.01;

HILLSBORO      MOCLDY    45  41  86 NW6       30.07R
6HR MIN TEMP:  45; 6HR MAX TEMP:  58; 6HR PCP: TRACE;

AURORA         CLOUDY    48  43  82 W5        30.08R
6HR MIN TEMP:  48; 6HR MAX TEMP:  55; 6HR PCP:  0.09;

MCMINNVILLE    MOCLDY    45  41  86 SW6       30.08R
6HR MIN TEMP:  45; 6HR MAX TEMP:  58;

SALEM          CLOUDY    47  41  80 W7        30.07R
6HR MIN TEMP:  47; 6HR MAX TEMP:  56; 6HR PCP: TRACE;

CORVALLIS      MOCLDY    46  41  81 CALM      30.09R
EUGENE         PTCLDY    44  44 100 SW6       30.08S
6HR MIN TEMP:  44; 6HR MAX TEMP:  54; 6HR PCP:  0.02;

$$

ORZ021-028-300700-
SOUTHWEST OREGON


CITY           SKY/WX    TMP DP  RH WIND       PRES   REMARKS
NORTH BEND     CLOUDY    48  46  93 N7        30.14R
6HR MIN TEMP:  48; 6HR MAX TEMP:  54; 6HR PCP:  0.11;

BROOKINGS      LGT RAIN  48  48 100 NW14      30.13S FOG
ROSEBURG       CLOUDY    51  47  86 NW8       30.08R
6HR MIN TEMP:  51; 6HR MAX TEMP:  56; 6HR PCP:  0.16;

SEXTON SUMMIT  FOG       41  40  96 VRB3      30.01F VSB 1/2
6HR MIN TEMP:  41; 6HR MAX TEMP:  41;

MEDFORD        LGT RAIN  49  48  97 W3        30.03F
6HR MIN TEMP:  49; 6HR MAX TEMP:  52; 6HR PCP:  0.20;

$$

ORZ014>016-041-300700-
COLUMBIA GORGE


CITY           SKY/WX    TMP DP  RH WIND       PRES   REMARKS
TROUTDALE      CLOUDY    49  42  77 NW7       30.06R
6HR MIN TEMP:  49; 6HR MAX TEMP:  58;

THE DALLES     PTCLDY    51  42  71 W16       29.97R
6HR MIN TEMP:  51; 6HR MAX TEMP:  63;

$$

ORZ029>031-041-044-049-050-061>064-502-503-505>511-300700-
EASTERN OREGON


CITY           SKY/WX    TMP DP  RH WIND       PRES   REMARKS
REDMOND        LGT RAIN  45  38  76 NW9       29.95S
6HR MIN TEMP:  45; 6HR MAX TEMP:  53; 6HR PCP:  0.02;

BEND           LGT RAIN  43  41  93 N7        29.95S
PRINEVILLE     LGT RAIN  45  41  87 W7        29.94F
KLAMATH FALLS  RAIN      46  43  89 SW8       29.99F FOG
6HR MIN TEMP:  45; 6HR MAX TEMP:  50; 6HR PCP:  0.08;

LAKEVIEW       CLOUDY    45  43  93 S13       30.01F
HERMISTON      CLOUDY    50  45  83 SW8       29.92S
6HR MIN TEMP:  48; 6HR MAX TEMP:  60;

PENDLETON      MOCLDY    49  44  83 W13       29.92R
6HR MIN TEMP:  48; 6HR MAX TEMP:  57;

JOHN DAY       PTCLDY    46  40  79 CALM      29.93F
MEACHAM        HVY RAIN  42  39  89 CALM      29.91S FOG
6HR MIN TEMP:  41; 6HR MAX TEMP:  48; 6HR PCP:  0.02;

LA GRANDE      CLOUDY    48  39  71 NW3       29.90F
6HR MIN TEMP:  46; 6HR MAX TEMP:  48; 6HR PCP:  0.02;

BAKER CITY     MOCLDY    39  38  96 E3        29.91F
6HR MIN TEMP:  39; 6HR MAX TEMP:  46; 6HR PCP:  0.06;

BURNS          MOCLDY    41  37  86 N5        29.97S
6HR MIN TEMP:  39; 6HR MAX TEMP:  49; 6HR PCP:  0.01;

ROME             N/A     49  45  86 SW9       29.95F
6HR MIN TEMP:  49; 6HR MAX TEMP:  60; 6HR PCP:  0.08;

ONTARIO        CLOUDY    49  47  93 CALM      29.93F
6HR MIN TEMP:  49; 6HR MAX TEMP:  51; 6HR PCP:  0.14;

$$




USA.gov is the U.S. government's official web portal to all federal, state and local government web resources and services.